Location: Rio Negrinho
(26.2394°S, 49.4999°W)
Time: 11:35:53
(UTC+00:00)

Hubble Space Telescope - Pass Details

Date: 28 July 2021
Orbit: 535 x 539 km, 28.5° (Epoch: 15 September)

Event Time Altitude Azimuth Distance (km) Brightness Sun altitude
Exits shadow 07:55:37 33° 40° (NE) 918 2.3 -27.7°
Drops below altitude 10° 07:58:52 10° 88° (E) 1,793 4.4 -26.9°
Sets 08:01:16 0° 97° (E) 2,688 5.5 -26.4°
